User: anonymous   Login
Location: Trois-Rivi�res
(46.3500°N, 72.5500°W)
Time: 12:29:18
(UTC-04:00)
Language:

SJ-11-01 - Orbit

View from above orbital plane
View from above orbital plane
View from above satellite
View from above satellite

Ground track
Ground track

The orbit data is extracted from the following two-line orbital elements,

1 36088U 09061A   16210.41302325  .00000101  00000-0  30881-4 0  9997
2 36088  98.1848 257.3213 0010954 190.9499 169.1462 14.59855941357407
Epoch (UTC): 28 July 2016 09:54:45
Eccentricity: 0.0010954
inclination: 98.1848°
perigee height: 686 km
apogee height: 701 km
right ascension of ascending node: 257.3213°
argument of perigee: 190.9499°
revolutions per day: 14.59855941
mean anomaly at epoch: 169.1462°
orbit number at epoch: 35740

The dashed part of the orbit path shows where the satellite is in the earth's shadow,  

DLR